DateTimeUTC,F1_A11,F1_S11,BsB_S11,BsG_S11,BsR_S11,BbsB_S11,BbsG_S11,BbsR_S11,BaB_A11,BaG_A11,BaR_A11,Tu_S11,T_S11,Uu_S11,U_S11,P_S11,T1_A11
2021-02-08T14:00:00Z,00000200,21000000,,,,,,,0000.58,-000.01,-000.04,16.6,23.4,,00.0,0654.0,31.0
2021-02-08T14:01:00Z,00000200,21000000,,,,,,,-000.34,0000.31,0000.02,16.6,23.4,,00.0,0654.0,31.0
2021-02-08T14:02:00Z,00000200,21000000,,,,,,,-000.24,-000.13,-000.25,16.6,23.4,,00.0,0654.0,31.0
2021-02-08T14:03:00Z,00000200,61000000,,,,,,,0000.28,-000.11,0000.39,16.7,23.4,,00.0,0654.0,31.0
2021-02-08T14:04:00Z,00000200,41000000,0000.37,0000.44,0000.17,0000.16,0000.20,-000.20,-000.02,0000.03,-000.38,17.0,23.4,00.2,00.1,0654.9,31.0
2021-02-08T14:05:00Z,00000200,01000000,0000.37,0000.44,0000.30,-000.32,-000.00,-000.04,0000.11,0000.32,0000.21,17.1,23.4,00.2,00.1,0654.9,31.0
2021-02-08T14:06:00Z,00000200,01000000,0000.55,0000.23,0000.29,0000.82,0000.25,-000.11,-000.05,-000.25,-000.31,17.1,23.4,00.2,00.1,0655.0,31.0
2021-02-08T14:07:00Z,00000200,01000000,0000.80,0000.01,0000.31,0000.61,-000.07,0000.40,0000.07,0000.36,0000.33,17.1,23.4,00.1,00.1,0655.0,31.0
2021-02-08T14:08:00Z,00000200,01000000,0000.18,0000.46,0000.26,-000.12,0000.23,0000.11,0000.18,-000.19,-000.03,17.1,23.3,00.1,00.1,0655.0,31.0
2021-02-08T14:09:00Z,00000200,01000000,0000.22,0000.26,0000.18,0000.04,0000.34,-000.00,-000.30,0000.11,-000.16,17.0,23.3,00.1,00.0,0655.0,31.0
2021-02-08T14:10:00Z,00000200,01000000,0000.23,0000.28,0000.00,-000.01,0000.21,-000.11,0000.30,-000.10,0000.41,17.0,23.4,00.0,00.0,0655.0,31.0
2021-02-08T14:11:00Z,00000200,01000000,0000.22,0000.04,-000.06,-000.15,0000.34,0000.00,0000.34,-000.07,-000.01,17.0,23.4,00.1,00.0,0655.0,31.0
2021-02-08T14:12:00Z,00000200,01000000,0000.58,0000.12,0000.12,0000.25,0000.21,-000.12,-000.07,0000.48,-000.22,16.9,23.3,00.0,00.0,0655.0,30.9
2021-02-08T14:13:00Z,00000200,01000000,0000.34,0000.13,-000.12,-000.26,-000.01,0000.20,0000.01,-000.30,-000.11,16.9,23.3,00.0,00.0,0655.0,30.9
2021-02-08T14:14:00Z,00000200,01000000,0000.43,-000.06,0000.04,-000.13,0000.01,-000.09,-000.28,-000.11,0000.24,16.9,23.3,00.0,00.0,0655.0,30.9
2021-02-08T14:15:00Z,00000200,01000000,0000.48,0000.09,0000.11,0000.25,0000.07,-000.16,0000.24,0000.38,-000.04,16.9,23.3,00.0,00.0,0655.0,31.0
2021-02-08T14:16:00Z,00000200,01000000,0000.19,0000.34,0000.21,-000.19,0000.12,0000.03,-000.06,-000.04,0000.27,16.9,23.3,00.0,00.0,0655.0,31.0
2021-02-08T14:17:00Z,00000200,01000000,0000.60,-000.10,-000.09,-000.30,0000.27,0000.04,0000.55,0000.25,-000.04,17.0,23.3,00.0,00.0,0655.0,31.0
2021-02-08T14:18:00Z,00000200,01000000,0000.40,0000.34,0000.17,0000.69,0000.34,0000.03,0000.08,0000.25,0000.25,17.0,23.4,00.0,00.0,0655.0,31.0
2021-02-08T14:19:00Z,00000200,01000000,0000.90,0000.42,-000.08,0000.76,0000.15,-000.12,0000.31,-000.03,0000.11,17.0,23.3,00.0,00.0,0655.0,31.0
2021-02-08T14:20:00Z,00000200,01000000,0001.26,0000.44,-000.11,0000.59,0000.17,0000.03,-000.22,0000.20,-000.04,17.0,23.4,,00.0,0655.0,31.0
2021-02-08T14:21:00Z,00000200,01000000,0000.08,0000.35,0000.21,0000.71,0000.25,0000.17,0000.03,-000.37,-000.05,16.9,23.3,00.0,00.0,0655.0,31.0
2021-02-08T14:22:00Z,00000200,01000000,0000.64,0000.27,0000.12,0000.34,0000.28,-000.07,-000.09,0000.38,-000.02,16.9,23.4,,00.0,0655.0,31.0
2021-02-08T14:23:00Z,00000200,01000000,0000.47,0000.53,0000.41,0000.39,0000.17,0000.26,0000.42,0000.02,0000.20,16.9,23.3,,00.0,0655.0,30.9
2021-02-08T14:24:00Z,00000200,01000000,0001.38,0000.37,0000.16,0000.89,0000.20,-000.13,-000.10,0000.09,0000.10,16.9,23.3,00.0,00.0,0655.0,30.9
2021-02-08T14:25:00Z,00000200,01000000,0000.64,0000.44,0000.24,0000.34,0000.11,-000.08,0000.29,0000.37,-000.08,16.9,23.3,,00.0,0655.0,30.9
2021-02-08T14:26:00Z,00000200,01000000,0001.41,0000.62,0000.30,0000.04,0000.25,-000.06,0000.33,-000.03,0000.32,16.9,23.3,,00.0,0655.0,30.9
2021-02-08T14:27:00Z,00000200,01000000,0000.57,0000.50,0000.20,0000.13,0000.18,0000.23,0000.12,0000.24,-000.12,16.8,23.3,,00.0,0655.0,30.9
2021-02-08T14:28:00Z,00000200,01000000,0000.54,0000.14,0000.08,0000.21,0000.01,0000.23,0000.80,0000.48,0000.50,16.8,23.3,,00.0,0655.0,30.9
2021-02-08T14:29:00Z,00000200,01000000,0000.05,0000.62,0000.18,0000.06,0000.24,0000.05,0000.52,0000.69,0000.46,16.8,23.3,00.0,00.0,0655.0,30.9
2021-02-08T14:30:00Z,00000200,01000000,0000.65,0000.41,0000.19,0000.52,0000.28,0000.08,0000.31,0000.27,0000.27,16.8,23.3,00.0,00.0,0655.0,30.9
2021-02-08T14:31:00Z,00000200,01000000,0000.44,0000.58,-000.09,-000.10,0000.10,0000.06,0000.62,0000.41,0000.10,16.9,23.3,00.0,00.0,0655.0,31.0
2021-02-08T14:32:00Z,00000200,01000000,0001.21,0000.48,-000.00,0000.20,0000.09,-000.09,0000.26,0000.48,0000.29,17.0,23.3,00.0,00.0,0655.0,31.0
2021-02-08T14:33:00Z,00000200,01000000,0000.86,0000.44,0000.19,0000.34,0000.13,-000.02,0000.28,0000.56,0000.44,17.1,23.4,00.0,00.0,0655.0,31.0
2021-02-08T14:34:00Z,00000200,01000000,0000.93,0000.56,0000.36,0000.08,0000.39,0000.33,0000.29,0000.02,0000.24,17.2,23.4,00.0,00.0,0655.0,31.0
2021-02-08T14:35:00Z,00000200,01000000,0000.40,0000.29,0000.16,0000.34,0000.28,-000.03,0000.45,0000.08,0000.14,17.3,23.5,00.0,00.0,0655.0,31.0
2021-02-08T14:36:00Z,00000200,01000000,0000.53,0000.49,-000.13,-000.33,0000.28,-000.13,0000.39,0000.61,0000.19,17.3,23.5,00.0,00.0,0655.0,31.1
2021-02-08T14:37:00Z,00000200,01000000,0000.39,0000.40,-000.10,0000.21,-000.10,0000.02,0000.57,0000.52,0000.59,17.4,23.6,00.0,00.0,0655.0,31.1
2021-02-08T14:38:00Z,00000200,01000000,0000.69,0000.40,0000.16,0000.26,0000.12,0000.26,0000.64,0000.99,0000.60,17.5,23.6,00.1,00.1,0655.0,31.1
2021-02-08T14:39:00Z,00000200,01000000,0000.70,0000.69,0000.06,0000.14,0000.08,0000.00,0000.66,-000.05,0000.17,17.6,23.7,00.2,00.1,0655.1,31.1
2021-02-08T14:40:00Z,00000200,01000000,0000.78,0000.43,0000.04,-000.13,0000.17,0000.06,0000.29,0000.69,0000.31,17.6,23.7,00.2,00.2,0655.1,31.1
2021-02-08T14:41:00Z,00000200,01000000,-000.09,0000.06,-000.03,0000.57,0000.06,0000.02,0000.45,0000.29,0000.31,17.6,23.7,00.4,00.2,0655.1,31.0
2021-02-08T14:42:00Z,00000200,01000000,0000.95,0000.51,0000.17,0000.33,0000.26,0000.05,0000.73,0000.62,0000.55,17.5,23.7,00.5,00.3,0655.1,31.0
2021-02-08T14:43:00Z,00000200,01000000,0000.38,0000.47,0000.22,0000.27,0000.09,-000.01,0000.16,0000.51,-000.19,17.5,23.7,00.6,00.4,0655.1,31.0
2021-02-08T14:44:00Z,00000200,01000000,0002.59,0000.58,0000.23,0000.09,-000.04,0000.02,0001.09,0000.24,0000.47,17.5,23.7,00.8,00.5,0655.1,31.0
2021-02-08T14:45:00Z,00000200,01000000,0000.69,0000.57,0000.20,-000.15,0000.29,0000.03,0000.32,0000.80,0000.62,17.5,23.7,00.9,00.6,0655.1,31.0
2021-02-08T14:46:00Z,00000200,01000000,0000.53,0000.82,0000.09,0000.09,0000.02,-000.05,0000.27,0000.03,-000.17,17.4,23.7,01.0,00.7,0655.1,31.0
2021-02-08T14:47:00Z,00000200,01000000,0000.90,0000.59,0000.32,-000.22,0000.07,0000.17,0000.72,0000.54,0000.52,17.4,23.7,01.1,00.7,0655.1,31.0
2021-02-08T14:48:00Z,00000200,01000000,0000.57,0000.24,0000.18,0000.01,0000.26,-000.05,0000.79,0000.49,0000.12,17.4,23.7,01.2,00.8,0655.1,31.0
2021-02-08T14:49:00Z,00000200,01000000,0000.89,0000.23,0000.29,0000.07,0000.14,0000.19,0000.10,0000.24,0000.54,17.3,23.7,01.2,00.8,0655.1,31.0
2021-02-08T14:50:00Z,00000200,01000000,0000.27,0000.70,0000.29,0000.83,0000.07,-000.20,0000.05,-000.01,-000.04,17.3,23.6,01.3,00.9,0655.1,31.0
2021-02-08T14:51:00Z,00000200,01000000,0000.88,0000.73,0000.06,0000.02,0000.09,0000.09,0000.43,-000.00,-000.11,17.3,23.6,01.2,00.8,0655.1,31.0
2021-02-08T14:52:00Z,00000200,01000000,0001.13,0000.45,0000.10,0000.24,0000.26,0000.01,0000.30,0000.78,0000.49,17.2,23.6,01.3,00.9,0655.1,31.0
2021-02-08T14:53:00Z,00000200,01000000,0001.34,0000.93,0000.26,0000.08,0000.17,-000.13,0005.73,0005.11,0005.10,17.2,23.6,01.2,00.8,0655.1,31.0
2021-02-08T14:54:00Z,00000200,01000000,0000.90,0000.59,0000.24,-000.05,0000.31,0000.04,0000.52,0000.40,0000.15,17.2,23.6,01.3,00.9,0655.1,31.0
2021-02-08T14:55:00Z,00000200,01000000,0000.73,0000.53,0000.19,0000.35,0000.14,0000.06,0000.65,0000.49,0000.27,17.2,23.6,01.3,00.9,0655.1,31.0
2021-02-08T14:56:00Z,00000200,01000000,0001.16,0000.27,0000.05,-000.22,0000.13,-000.01,0000.39,0000.68,0000.64,17.2,23.6,01.4,00.9,0655.2,31.0
2021-02-08T14:57:00Z,00000200,41000000,,,,,,,-000.84,-000.70,-000.68,17.2,23.6,00.9,00.6,0655.1,31.0
2021-02-08T14:58:00Z,00000200,61000000,,,,,,,0000.31,0000.03,0000.10,16.8,23.7,00.9,00.6,0654.3,31.0
2021-02-08T14:59:00Z,00000200,21000000,,,,,,,0000.43,0000.13,0000.06,16.8,23.8,01.0,00.6,0654.3,31.0
